User: anonymous   Login
Location: Riverside Cemetery
(38.3047°N, 99.7773°W)
Time: 12:06:59
(UTC+00:00)
Language:

Cosmos 1842 - Orbit

View from above orbital plane
View from above orbital plane
View from above satellite
View from above satellite

Ground track
Ground track

The orbit data is extracted from the following two-line orbital elements,

1 17911U 87038A   20329.92942456 +.00000516 +00000-0 +27970-4 0  9993
2 17911 082.5249 043.4765 0010199 230.1620 129.8714 15.12382147831394
Epoch (UTC): 24 November 2020 22:18:22
Eccentricity: 0.0010199
inclination: 82.5249°
perigee height: 522 km
apogee height: 536 km
right ascension of ascending node: 43.4765°
argument of perigee: 230.1620°
revolutions per day: 15.12382147
mean anomaly at epoch: 129.8714°
orbit number at epoch: 83139

The dashed part of the orbit path shows where the satellite is in the earth's shadow,  

DLR